[[{"header":{"parameterUnit":"m.s-1","parameterCategory":2,"la1":30.2991,"la2":30.254,"lo1":-89.0895,"lo2":-89.0444,"dy":0.0017,"dx":0.0017,"nx":28,"ny":28,"refTime":"2023-09-19T21:00:00:Z","depth":"0","parameterNumber":2,"parameterNumberName":"U-component_of_CURRENTS"},"data":[0,0,0,0,0,0,0,0,0,0,0,0,0,0,0,0,0,0,0,0,0,0,0,0,0,0,0,0,0,0,0,0,0,0,0,0,0,0,0,0,0,0,0,0,0,0,0,0,0,0,0,0,0,0,0,0,0,0,0.2003,0.2003,0,0.199,0.1989,0.1989,0.1976,0.1977,0.1977,0.1977,0.1949,0.1948,0.1947,0,0,0,0,0,0,0,0,0,0,0,0,0,0.2,0.2,0.2003,0.2003,0.2003,0.199,0.1989,0.1989,0.1976,0.1977,0.1977,0.1977,0.1949,0.1948,0.1947,0,0,0,0,0,0,0,0,0,0,0,0,0,0.1993,0.2,0.2003,0.1997,0.1997,0.199,0.1989,0.1989,0.1976,0.1977,0.1977,0.1977,0.1949,0.1948,0.1947,0.1937,0,0,0.1943,0.1942,0,0,0,0,0,0,0,0,0.1993,0.1993,0.1998,0.1998,0.1997,0.1987,0.1978,0.1972,0.1976,0.1981,0.1977,0.1977,0.1962,0.1959,0.1953,0.1936,0.1934,0.1943,0.1942,0.1942,0.1941,0,0,0,0,0,0,0,0.1994,0.1993,0.1995,0.1998,0.1998,0.1989,0.1988,0.1976,0.1969,0.1981,0.1981,0.1983,0.1961,0.1954,0.1953,0.1934,0.1943,0.1942,0.1941,0.1941,0.1954,0.1955,0,0,0,0,0,0,0.2001,0.1994,0.1996,0.1995,0.1998,0.1989,0.1988,0.1988,0.1969,0.1967,0.1983,0.1983,0.1956,0.1954,0.1951,0.1977,0.1942,0.1941,0.194,0.1953,0.1954,0.1956,0,0,0,0,0,0,0.2001,0.2002,0.1996,0.1996,0.1995,0.199,0.1989,0.1988,0.1988,0.1972,0.1969,0.1987,0.1956,0.1953,0.1954,0.1975,0.194,0.1939,0.1952,0.1954,0.1955,0.2004,0,0,0,0,0,0,0.2001,0.2002,0.2004,0.1997,0.1996,0.2004,0.199,0.1988,0.1991,0.199,0.1973,0.1971,0.1956,0.1956,0.1953,0.1972,0.1938,0.195,0.1953,0.1955,0.2001,0.2008,0.2013,0,0,0,0,0,0.2001,0.2006,0.2004,0.2004,0.1999,0.2005,0.2003,0.1998,0.1991,0.1997,0.1987,0.1971,0.1967,0.1956,0.1952,0.1971,0.1949,0.1952,0.1954,0.1999,0.2006,0.2013,0,0,0,0,0,0,0.2003,0.2005,0.2002,0.2007,0.2011,0.2004,0.2008,0.2003,0.1999,0.1998,0.1978,0.1975,0.1988,0.1972,0.196,0.1983,0.1959,0.196,0.1994,0.2001,0.2006,0.2019,0.1937,0,0,0,0,0,0.2006,0.201,0.2012,0.2016,0.202,0.2014,0.2015,0.2014,0.201,0.2008,0.1997,0.199,0.1993,0.1991,0.1988,0.1992,0.2002,0.2006,0.2012,0.2016,0.2025,0.2061,0.2071,0.1964,0.1964,0.1964,0,0,0.2005,0.2009,0.201,0.2017,0.2017,0.2027,0.2015,0.2023,0.2032,0.2005,0.2011,0.2009,0.2,0.2013,0.2017,0.2002,0.2053,0.202,0.2024,0.203,0.2065,0.2075,0.2084,0.1965,0.1965,0.1965,0,0,0.2012,0.2014,0.2021,0.203,0.204,0.204,0.2047,0.2046,0.2048,0.2054,0.2046,0.2058,0.2047,0.2054,0.2054,0.2089,0.2085,0.2088,0.2122,0.2157,0.2166,0.2174,0.2207,0.2217,0.2088,0.2088,0.2088,0,0.2013,0.2022,0.2025,0.2039,0.2047,0.2049,0.2062,0.2067,0.2067,0.2076,0.2064,0.208,0.207,0.21,0.2114,0.2103,0.2121,0.2095,0.2165,0.2173,0.2181,0.2212,0.2223,0.2091,0.209,0.209,0.209,0,0.2027,0.2036,0.2044,0.2061,0.2072,0.2085,0.2097,0.2109,0.2111,0.2115,0.2143,0.2139,0.2151,0.2154,0.2142,0.2194,0.2189,0.2171,0.2148,0.2195,0.2224,0.2235,0.2094,0.2093,0.2093,0.2092,0,0,0.2019,0.2047,0.2049,0.2062,0.2085,0.2095,0.2122,0.2145,0.2167,0.2175,0.2205,0.2219,0.2223,0.2226,0.2221,0.2249,0.2316,0.2235,0.2236,0.2268,0.24,0.2383,0.2392,0.2312,0.2314,0.2316,0.2402,0,0.2027,0.2054,0.2067,0.2093,0.2107,0.2127,0.215,0.2175,0.2194,0.2225,0.2241,0.2266,0.2249,0.2263,0.2291,0.2311,0.2346,0.2295,0.2349,0.2351,0.233,0.2405,0.2348,0.2419,0.2412,0.2414,0.2415,0,0.2029,0.205,0.2072,0.2111,0.2119,0.2134,0.2179,0.2205,0.2254,0.2271,0.2309,0.2321,0.2371,0.2344,0.2417,0.2387,0.2403,0.2414,0.2417,0.2391,0.2353,0.237,0.2438,0.2404,0.2431,0.243,0.2429,0,0.2011,0.2052,0.2068,0.208,0.2123,0.2138,0.2167,0.2215,0.2241,0.2308,0.2336,0.2391,0.2424,0.2461,0.2486,0.2461,0.2562,0.2525,0.2528,0.2526,0.2484,0.2476,0.2526,0.2584,0.2584,0.2584,0.2583,0,0.2004,0.2019,0.206,0.2066,0.2091,0.2132,0.2164,0.2205,0.2265,0.2301,0.236,0.2404,0.2457,0.2512,0.2524,0.2571,0.2597,0.2559,0.2557,0.25,0.2492,0.2462,0.2432,0.2587,0.2586,0.2586,0.2585,0,0.1966,0.1996,0.2016,0.2063,0.2075,0.2093,0.2146,0.2175,0.2247,0.23,0.2326,0.243,0.2513,0.2559,0.2629,0.2621,0.2601,0.2664,0.2595,0.2583,0.2535,0.2509,0.2466,0.2368,0.2688,0.2688,0.2688,0,0.1942,0.1949,0.1993,0.2002,0.2016,0.2049,0.2069,0.2145,0.2184,0.2308,0.2336,0.2449,0.251,0.2626,0.2659,0.2706,0.2614,0.266,0.2597,0.2551,0.2521,0.2417,0.2328,0.2566,0.2565,0.2564,0.2564,0,0.1895,0.1911,0.1927,0.1949,0.1965,0.1987,0.2032,0.2054,0.2151,0.2219,0.2317,0.2384,0.2523,0.2573,0.265,0.266,0.255,0.2646,0.2622,0.2459,0.2327,0.2224,0.249,0.2557,0.2558,0.2559,0.2559,0.2559,0.1848,0.1848,0.1872,0.1881,0.1902,0.1912,0.1899,0.1967,0.202,0.2091,0.2228,0.2308,0.2464,0.2582,0.258,0.2579,0.2515,0.2518,0.2502,0.241,0.2276,0.253,0.2575,0.2576,0.2576,0.2577,0.2577,0,0.1778,0.179,0.1804,0.1805,0.179,0.1832,0.1857,0.1833,0.1857,0.1995,0.2071,0.2241,0.2338,0.2443,0.2537,0.2463,0.2327,0.2396,0.2246,0.2168,0.2438,0.2394,0.2374,0.2374,0.2374,0.2374,0.2374,0.2374,0.1743,0.1725,0.1732,0.1681,0.1682,0.1625,0.1613,0.1611,0.1684,0.1768,0.1876,0.2005,0.2244,0.2477,0.2487,0.2409,0.22,0.2134,0.207,0.2298,0.2308,0.2317,0.2271,0.2225,0.2225,0.1718,0.1715,0.1712]},{"header":{"parameterUnit":"m.s-1","parameterCategory":2,"la1":30.2991,"la2":30.254,"lo1":-89.0895,"lo2":-89.0444,"dy":0.0017,"dx":0.0017,"nx":28,"ny":28,"refTime":"2023-09-19T21:00:00:Z","depth":"0","parameterNumber":3,"parameterNumberName":"V-component_of_CURRENTS"},"data":[0,0,0,0,0,0,0,0,0,0,0,0,0,0,0,0,0,0,0,0,0,0,0,0,0,0,0,0,0,0,0,0,0,0,0,0,0,0,0,0,0,0,0,0,0,0,0,0,0,0,0,0,0,0,0,0,0,0,-0.0223,-0.0224,0,-0.0273,-0.0273,-0.0274,-0.0303,-0.0303,-0.0303,-0.0303,-0.0376,-0.0378,-0.038,0,0,0,0,0,0,0,0,0,0,0,0,0,-0.018,-0.0181,-0.0223,-0.0224,-0.0224,-0.0272,-0.0273,-0.0274,-0.0303,-0.0303,-0.0303,-0.0303,-0.0376,-0.0378,-0.038,0,0,0,0,0,0,0,0,0,0,0,0,0,-0.0211,-0.0181,-0.0223,-0.0245,-0.0247,-0.0272,-0.0273,-0.0274,-0.0303,-0.0303,-0.0303,-0.0303,-0.0375,-0.0378,-0.038,-0.0394,0,0,-0.0389,-0.039,0,0,0,0,0,0,0,0,-0.021,-0.0213,-0.0241,-0.0243,-0.0246,-0.0282,-0.0285,-0.0315,-0.0303,-0.0282,-0.0303,-0.0303,-0.0346,-0.0352,-0.0361,-0.0398,-0.0401,-0.0389,-0.0391,-0.0392,-0.0393,0,0,0,0,0,0,0,-0.0207,-0.0211,-0.0243,-0.0241,-0.0245,-0.0261,-0.0265,-0.0291,-0.0313,-0.0284,-0.0286,-0.0291,-0.0348,-0.0358,-0.0363,-0.0402,-0.0389,-0.0391,-0.0393,-0.0394,-0.0451,-0.0451,0,0,0,0,0,0,-0.0199,-0.0209,-0.0242,-0.0245,-0.0227,-0.0261,-0.0266,-0.027,-0.0313,-0.0319,-0.0291,-0.0292,-0.0353,-0.0359,-0.0365,-0.038,-0.0392,-0.0394,-0.0396,-0.0451,-0.0451,-0.0451,0,0,0,0,0,0,-0.0198,-0.0202,-0.024,-0.0228,-0.0234,-0.0261,-0.0266,-0.0271,-0.0281,-0.0318,-0.0325,-0.0295,-0.0353,-0.0361,-0.0383,-0.0383,-0.0396,-0.0398,-0.0452,-0.0451,-0.0451,-0.0412,0,0,0,0,0,0,-0.0197,-0.0201,-0.0201,-0.0227,-0.0234,-0.0252,-0.0266,-0.0272,-0.0283,-0.0286,-0.0324,-0.0331,-0.0354,-0.0378,-0.0385,-0.0387,-0.04,-0.0452,-0.0451,-0.0451,-0.0414,-0.0411,-0.0408,0,0,0,0,0,-0.0195,-0.0193,-0.02,-0.0204,-0.0233,-0.0252,-0.0257,-0.0277,-0.0283,-0.0287,-0.0308,-0.033,-0.0382,-0.038,-0.0389,-0.0391,-0.0452,-0.0452,-0.0451,-0.0415,-0.0411,-0.0408,0,0,0,0,0,0,-0.0174,-0.0197,-0.0205,-0.021,-0.0228,-0.0256,-0.026,-0.0274,-0.0294,-0.0295,-0.0328,-0.0337,-0.0356,-0.0378,-0.0375,-0.0407,-0.042,-0.0422,-0.039,-0.0387,-0.0384,-0.037,-0.0403,0,0,0,0,0,-0.0169,-0.0173,-0.0198,-0.0201,-0.0208,-0.0233,-0.0243,-0.0256,-0.0277,-0.0286,-0.0312,-0.0338,-0.0361,-0.0376,-0.04,-0.0418,-0.0435,-0.0425,-0.0422,-0.0419,-0.0414,-0.0444,-0.0444,-0.045,-0.045,-0.045,0,0,-0.0162,-0.0174,-0.0177,-0.0197,-0.0211,-0.0216,-0.0239,-0.025,-0.0253,-0.0291,-0.0302,-0.0329,-0.0363,-0.0381,-0.0392,-0.04,-0.0425,-0.0419,-0.0417,-0.0412,-0.0444,-0.0443,-0.0443,-0.045,-0.045,-0.045,0,0,-0.0147,-0.0159,-0.0157,-0.0169,-0.0188,-0.0202,-0.0203,-0.0229,-0.0239,-0.0254,-0.0281,-0.0306,-0.0341,-0.0366,-0.0384,-0.0381,-0.0408,-0.0389,-0.0367,-0.0397,-0.0396,-0.0396,-0.0407,-0.0408,-0.0389,-0.0389,-0.0389,0,-0.0137,-0.0138,-0.016,-0.016,-0.0163,-0.0192,-0.0187,-0.0204,-0.0232,-0.0238,-0.0251,-0.0302,-0.0334,-0.0358,-0.0357,-0.0375,-0.0388,-0.0376,-0.0393,-0.0393,-0.0394,-0.0405,-0.0406,-0.0387,-0.0387,-0.0387,-0.0388,0,-0.0122,-0.0122,-0.0121,-0.0129,-0.0135,-0.0136,-0.0157,-0.0165,-0.0181,-0.0199,-0.0223,-0.0267,-0.0296,-0.0314,-0.0337,-0.0356,-0.0362,-0.0384,-0.0399,-0.0391,-0.0403,-0.0405,-0.0384,-0.0385,-0.0385,-0.0386,0,0,-0.0098,-0.0108,-0.0107,-0.01,-0.0116,-0.0117,-0.012,-0.0131,-0.0126,-0.0165,-0.0166,-0.022,-0.0244,-0.0265,-0.03,-0.0331,-0.0349,-0.0355,-0.0358,-0.0361,-0.0399,-0.0397,-0.04,-0.0374,-0.0375,-0.0375,-0.0401,0,-0.0079,-0.0066,-0.0078,-0.0061,-0.0054,-0.0074,-0.0068,-0.0081,-0.01,-0.0109,-0.0162,-0.0178,-0.0225,-0.0236,-0.0275,-0.0327,-0.0356,-0.0339,-0.041,-0.0411,-0.0409,-0.0403,-0.0398,-0.042,-0.0404,-0.0404,-0.0404,0,-0.0057,-0.0051,-0.0029,-0.0018,-0.0015,-0.0007,0.0003,-0.0001,-0.0026,-0.0039,-0.0074,-0.011,-0.0157,-0.0198,-0.0286,-0.0271,-0.0329,-0.0375,-0.0378,-0.0392,-0.0415,-0.0429,-0.0426,-0.0554,-0.0409,-0.0408,-0.0408,0,-0.0021,-0.0013,0.001,0.0011,0.0017,0.003,0.0031,0.0022,0.0035,0.0002,0.001,-0.0057,-0.0076,-0.0166,-0.0256,-0.0272,-0.0346,-0.0384,-0.0436,-0.0436,-0.0453,-0.0454,-0.058,-0.0448,-0.0448,-0.0448,-0.0447,0,0.0008,0.0025,0.003,0.0043,0.008,0.0068,0.0102,0.0093,0.0096,0.0125,0.0048,0.006,-0.0069,-0.0124,-0.0228,-0.0327,-0.0326,-0.0426,-0.0445,-0.0438,-0.0437,-0.0567,-0.0652,-0.0448,-0.0448,-0.0448,-0.0448,0,0.0043,0.0043,0.0072,0.0088,0.0099,0.0124,0.0154,0.018,0.017,0.0206,0.0204,0.0155,0.0084,-0.004,-0.0169,-0.0272,-0.0462,-0.0417,-0.0387,-0.0402,-0.0582,-0.0664,-0.0827,-0.0895,-0.0486,-0.0486,-0.0486,0,0.0061,0.0081,0.0112,0.0137,0.0147,0.0179,0.0212,0.0217,0.025,0.0273,0.0302,0.0253,0.0236,0.0047,-0.0142,-0.0314,-0.0457,-0.0431,-0.0473,-0.0587,-0.0693,-0.0767,-0.0819,-0.0477,-0.0477,-0.0477,-0.0477,0,0.0101,0.0113,0.0138,0.0191,0.023,0.0272,0.0315,0.0359,0.0381,0.0418,0.0466,0.0459,0.0291,0.0128,-0.0111,-0.0249,-0.0542,-0.0437,-0.0574,-0.0711,-0.0782,-0.0857,-0.0454,-0.0478,-0.0478,-0.0478,-0.0478,-0.0477,0.0137,0.0162,0.02,0.0249,0.0297,0.0361,0.0401,0.0463,0.0534,0.0601,0.0592,0.0599,0.0361,0.0036,-0.0166,-0.0532,-0.0554,-0.0644,-0.0736,-0.08,-0.0873,-0.0456,-0.0492,-0.0492,-0.0492,-0.0492,-0.0492,0,0.0184,0.0209,0.0256,0.0314,0.0369,0.0386,0.0471,0.0518,0.0612,0.0683,0.0724,0.0613,0.03,-0.0034,-0.0508,-0.077,-0.0901,-0.0927,-0.1044,-0.1084,-0.0723,-0.0728,-0.0794,-0.0794,-0.0793,-0.0793,-0.0793,-0.0793,0.0211,0.026,0.0277,0.0366,0.0407,0.0477,0.0525,0.0607,0.0669,0.0736,0.0743,0.0725,0.0474,-0.0344,-0.0935,-0.108,-0.1311,-0.1352,-0.1464,-0.1227,-0.1208,-0.119,-0.1214,-0.138,-0.1381,-0.1785,-0.1789,-0.1792]}],[{"header":{"parameterUnit":"m.s-1","parameterCategory":2,"la1":30.2991,"la2":30.254,"lo1":-89.0895,"lo2":-89.0444,"dy":0.0017,"dx":0.0017,"nx":28,"ny":28,"refTime":"2023-09-19T21:00:00:Z","depth":"2","parameterNumber":2,"parameterNumberName":"U-component_of_CURRENTS"},"data":[0,0,0,0,0,0,0,0,0,0,0,0,0,0,0,0,0,0,0,0,0,0,0,0,0,0,0,0,0,0,0,0,0,0,0,0,0,0,0,0,0,0,0,0,0,0,0,0,0,0,0,0,0,0,0,0,0,0,0.2037,0.2038,0,0.2026,0.2026,0.2026,0.2015,0.2015,0.2015,0.2015,0.1992,0.1992,0.1991,0,0,0,0,0,0,0,0,0,0,0,0,0,0.2032,0.2032,0.2037,0.2038,0.2038,0.2026,0.2026,0.2026,0.2015,0.2015,0.2015,0.2015,0.1992,0.1992,0.1991,0,0,0,0,0,0,0,0,0,0,0,0,0,0.2027,0.2032,0.2037,0.2033,0.2032,0.2026,0.2026,0.2025,0.2015,0.2015,0.2015,0.2015,0.1993,0.1992,0.1991,0.1982,0,0,0.1988,0.1987,0,0,0,0,0,0,0,0,0.2027,0.2027,0.2033,0.2033,0.2033,0.2024,0.2016,0.2011,0.2015,0.2019,0.2015,0.2015,0.2003,0.2001,0.1996,0.1981,0.198,0.1987,0.1987,0.1986,0.1986,0,0,0,0,0,0,0,0.2028,0.2027,0.2031,0.2033,0.2033,0.2025,0.2025,0.2015,0.2009,0.2019,0.2019,0.2021,0.2003,0.1997,0.1995,0.1979,0.1987,0.1987,0.1986,0.1985,0.2003,0.2004,0,0,0,0,0,0,0.2035,0.2028,0.2031,0.2031,0.2033,0.2026,0.2025,0.2025,0.2009,0.2007,0.2021,0.2021,0.1999,0.1996,0.1994,0.2023,0.1986,0.1985,0.1985,0.2002,0.2004,0.2005,0,0,0,0,0,0,0.2035,0.2035,0.2032,0.2031,0.203,0.2026,0.2026,0.2025,0.2026,0.2011,0.2009,0.2025,0.1999,0.1996,0.1999,0.202,0.1985,0.1984,0.2001,0.2003,0.2004,0.2054,0,0,0,0,0,0,0.2034,0.2035,0.2038,0.2031,0.2031,0.204,0.2026,0.2024,0.2028,0.2028,0.2014,0.2012,0.1998,0.2,0.1998,0.2018,0.1983,0.2,0.2002,0.2004,0.2051,0.2057,0.2062,0,0,0,0,0,0.2034,0.204,0.2038,0.2038,0.2034,0.2041,0.204,0.2035,0.2029,0.2035,0.2027,0.2012,0.2012,0.2,0.1997,0.2017,0.1999,0.2001,0.2003,0.2048,0.2056,0.2062,0,0,0,0,0,0,0.2037,0.2039,0.2037,0.2042,0.2047,0.204,0.2045,0.204,0.2038,0.2038,0.202,0.2017,0.2031,0.2017,0.2005,0.203,0.2005,0.2007,0.2041,0.2047,0.2053,0.2065,0.1982,0,0,0,0,0,0.204,0.2045,0.2047,0.2051,0.2056,0.2051,0.2052,0.2051,0.2049,0.2047,0.2038,0.2033,0.2037,0.2036,0.2034,0.2041,0.2049,0.2055,0.2061,0.2066,0.2074,0.211,0.212,0.2013,0.2013,0.2013,0,0,0.204,0.2044,0.2045,0.2053,0.2053,0.2064,0.2052,0.2061,0.207,0.2045,0.2053,0.2052,0.2045,0.2059,0.2064,0.2049,0.2102,0.2069,0.2073,0.2079,0.2114,0.2124,0.2134,0.2014,0.2014,0.2014,0,0,0.2048,0.205,0.2058,0.2066,0.2077,0.2078,0.2084,0.2085,0.2088,0.2095,0.2088,0.2101,0.2092,0.2101,0.2102,0.2138,0.2133,0.2137,0.2172,0.2206,0.2215,0.2224,0.2254,0.2264,0.2137,0.2137,0.2137,0,0.205,0.2059,0.2062,0.2076,0.2084,0.2087,0.21,0.2106,0.2108,0.2117,0.2106,0.2124,0.2116,0.2148,0.2162,0.2152,0.2169,0.2145,0.2214,0.2223,0.223,0.2259,0.227,0.214,0.2139,0.2139,0.2139,0,0.2064,0.2074,0.2082,0.2099,0.2111,0.2124,0.2136,0.2149,0.2152,0.2157,0.2187,0.2184,0.2198,0.2201,0.219,0.2243,0.2238,0.222,0.2197,0.2244,0.2271,0.2282,0.2144,0.2143,0.2142,0.2141,0,0,0.2057,0.2086,0.2088,0.2101,0.2124,0.2134,0.2162,0.2186,0.2209,0.2219,0.225,0.2266,0.2271,0.2274,0.2271,0.2299,0.2365,0.2285,0.2285,0.2316,0.2447,0.2421,0.2429,0.2362,0.2364,0.2366,0.2446,0,0.2066,0.2093,0.2107,0.2133,0.2147,0.2167,0.2191,0.2217,0.2237,0.2269,0.2287,0.2313,0.2297,0.2311,0.2341,0.236,0.2395,0.2345,0.2396,0.2398,0.237,0.2441,0.2223,0.2275,0.2456,0.2458,0.2459,0,0.2069,0.2091,0.2113,0.2151,0.216,0.2176,0.2221,0.2248,0.2298,0.2316,0.2355,0.2368,0.242,0.2393,0.2465,0.2436,0.2451,0.2462,0.2464,0.2431,0.2391,0.2256,0.2286,0.2477,0.2475,0.2474,0.2473,0,0.2052,0.2093,0.211,0.2121,0.2164,0.218,0.221,0.2258,0.2285,0.2353,0.2382,0.2439,0.2471,0.2507,0.2531,0.2508,0.2604,0.2571,0.2564,0.2562,0.2381,0.236,0.2629,0.2628,0.2628,0.2628,0.2628,0,0.2047,0.2061,0.2102,0.2109,0.2134,0.2175,0.2208,0.2249,0.231,0.2346,0.2406,0.2449,0.2503,0.2556,0.2568,0.2608,0.2638,0.2594,0.2591,0.2393,0.2373,0.2544,0.2533,0.2631,0.263,0.263,0.2629,0,0.201,0.2039,0.2059,0.2106,0.2119,0.2137,0.2191,0.2221,0.2292,0.2346,0.2371,0.2473,0.2552,0.2597,0.2664,0.2655,0.269,0.269,0.2458,0.2427,0.2616,0.2606,0.2704,0.2704,0.2704,0.2704,0.2704,0,0.1987,0.1994,0.2038,0.2047,0.2061,0.2095,0.2116,0.2192,0.2231,0.2352,0.238,0.2487,0.2539,0.2646,0.2649,0.2684,0.2712,0.2501,0.242,0.2641,0.2628,0.2619,0.261,0.2198,0.2194,0.219,0.2187,0,0.1941,0.1957,0.1974,0.1995,0.2012,0.2034,0.208,0.2102,0.2198,0.2259,0.2349,0.2407,0.2513,0.2465,0.2522,0.2505,0.248,0.2436,0.273,0.222,0.2172,0.2157,0.2163,0.2157,0.216,0.2162,0.2164,0.2165,0.1895,0.1896,0.1919,0.1928,0.195,0.196,0.1948,0.2006,0.2051,0.2097,0.2228,0.224,0.2289,0.2276,0.223,0.2199,0.2374,0.2255,0.2261,0.2272,0.2208,0.2163,0.2134,0.2136,0.2139,0.2141,0.2143,0,0.1824,0.1838,0.1852,0.1854,0.1837,0.1881,0.1906,0.1879,0.1883,0.1957,0.1998,0.188,0.1858,0.1905,0.1825,0.1861,0.1796,0.1774,0.1658,0.1692,0.1721,0.1622,0.1396,0.1393,0.1391,0.1389,0,0,0.1789,0.177,0.1777,0.1726,0.1729,0.1681,0.1669,0.1654,0.1682,0.1662,0.1646,0.1747,0.1855,0.159,0.1579,0.1473,0.1559,0.1411,0.2016,0.1913,0.1938,0.2014,0.1905,0,0,0,0,0]},{"header":{"parameterUnit":"m.s-1","parameterCategory":2,"la1":30.2991,"la2":30.254,"lo1":-89.0895,"lo2":-89.0444,"dy":0.0017,"dx":0.0017,"nx":28,"ny":28,"refTime":"2023-09-19T21:00:00:Z","depth":"2","parameterNumber":3,"parameterNumberName":"V-component_of_CURRENTS"},"data":[0,0,0,0,0,0,0,0,0,0,0,0,0,0,0,0,0,0,0,0,0,0,0,0,0,0,0,0,0,0,0,0,0,0,0,0,0,0,0,0,0,0,0,0,0,0,0,0,0,0,0,0,0,0,0,0,0,0,-0.0175,-0.0176,0,-0.0224,-0.0224,-0.0225,-0.0255,-0.0255,-0.0255,-0.0255,-0.0328,-0.033,-0.0332,0,0,0,0,0,0,0,0,0,0,0,0,0,-0.0134,-0.0134,-0.0175,-0.0176,-0.0177,-0.0224,-0.0224,-0.0225,-0.0255,-0.0255,-0.0255,-0.0256,-0.0328,-0.033,-0.0332,0,0,0,0,0,0,0,0,0,0,0,0,0,-0.0164,-0.0134,-0.0175,-0.0197,-0.0199,-0.0224,-0.0224,-0.0225,-0.0255,-0.0255,-0.0255,-0.0256,-0.0327,-0.0329,-0.0332,-0.0345,0,0,-0.034,-0.0342,0,0,0,0,0,0,0,0,-0.0162,-0.0166,-0.0193,-0.0196,-0.0198,-0.0233,-0.0237,-0.0266,-0.0255,-0.0234,-0.0255,-0.0256,-0.0298,-0.0303,-0.0312,-0.0348,-0.0351,-0.0341,-0.0342,-0.0343,-0.0344,0,0,0,0,0,0,0,-0.016,-0.0164,-0.0195,-0.0194,-0.0197,-0.0213,-0.0217,-0.0242,-0.0265,-0.0236,-0.0238,-0.0243,-0.03,-0.0309,-0.0314,-0.0352,-0.0341,-0.0343,-0.0345,-0.0346,-0.0401,-0.0401,0,0,0,0,0,0,-0.0152,-0.0162,-0.0193,-0.0196,-0.018,-0.0213,-0.0218,-0.0222,-0.0264,-0.0271,-0.0243,-0.0244,-0.0305,-0.0311,-0.0317,-0.0331,-0.0343,-0.0346,-0.0348,-0.0401,-0.0401,-0.0401,0,0,0,0,0,0,-0.0151,-0.0155,-0.0191,-0.018,-0.0186,-0.0214,-0.0218,-0.0223,-0.0233,-0.0269,-0.0276,-0.0248,-0.0305,-0.0313,-0.0334,-0.0335,-0.0347,-0.035,-0.0401,-0.0401,-0.0401,-0.0363,0,0,0,0,0,0,-0.015,-0.0154,-0.0154,-0.0179,-0.0186,-0.0203,-0.0218,-0.0224,-0.0236,-0.0238,-0.0276,-0.0283,-0.0306,-0.033,-0.0337,-0.0339,-0.0352,-0.0401,-0.0401,-0.0401,-0.0364,-0.0361,-0.0358,0,0,0,0,0,-0.0148,-0.0146,-0.0153,-0.0157,-0.0185,-0.0203,-0.0208,-0.0229,-0.0236,-0.0239,-0.0261,-0.0282,-0.0333,-0.0332,-0.034,-0.0343,-0.0402,-0.0401,-0.0401,-0.0365,-0.0362,-0.0359,0,0,0,0,0,0,-0.0128,-0.015,-0.0158,-0.0163,-0.0181,-0.0208,-0.0212,-0.0226,-0.0246,-0.0247,-0.0281,-0.0289,-0.0308,-0.0329,-0.0327,-0.0357,-0.0371,-0.0372,-0.0341,-0.0338,-0.0335,-0.0322,-0.0354,0,0,0,0,0,-0.0123,-0.0127,-0.0151,-0.0154,-0.0161,-0.0186,-0.0195,-0.0209,-0.023,-0.0239,-0.0264,-0.029,-0.0313,-0.0327,-0.035,-0.0368,-0.0385,-0.0374,-0.0372,-0.0369,-0.0364,-0.0394,-0.0393,-0.0399,-0.0399,-0.0399,0,0,-0.0116,-0.0128,-0.0131,-0.015,-0.0164,-0.0168,-0.0192,-0.0203,-0.0206,-0.0244,-0.0255,-0.0282,-0.0315,-0.0332,-0.0343,-0.035,-0.0374,-0.0369,-0.0366,-0.0362,-0.0393,-0.0393,-0.0392,-0.0399,-0.0399,-0.0399,0,0,-0.0102,-0.0114,-0.0112,-0.0123,-0.0141,-0.0155,-0.0156,-0.0182,-0.0193,-0.0208,-0.0234,-0.0259,-0.0294,-0.0317,-0.0334,-0.033,-0.0358,-0.0338,-0.0317,-0.0346,-0.0345,-0.0345,-0.0356,-0.0358,-0.0338,-0.0338,-0.0338,0,-0.0092,-0.0093,-0.0114,-0.0114,-0.0117,-0.0146,-0.014,-0.0156,-0.0185,-0.019,-0.0205,-0.0255,-0.0286,-0.0308,-0.0307,-0.0324,-0.0338,-0.0326,-0.0342,-0.0342,-0.0343,-0.0354,-0.0356,-0.0336,-0.0337,-0.0337,-0.0337,0,-0.0077,-0.0077,-0.0075,-0.0082,-0.0088,-0.0089,-0.0109,-0.0118,-0.0134,-0.0152,-0.0176,-0.022,-0.0248,-0.0265,-0.0287,-0.0306,-0.0312,-0.0333,-0.0349,-0.034,-0.0352,-0.0355,-0.0334,-0.0334,-0.0335,-0.0335,0,0,-0.0054,-0.0062,-0.0061,-0.0055,-0.0069,-0.007,-0.0072,-0.0082,-0.0077,-0.0117,-0.0118,-0.017,-0.0195,-0.0215,-0.025,-0.028,-0.0299,-0.0305,-0.0307,-0.0312,-0.0348,-0.0348,-0.0351,-0.0323,-0.0324,-0.0324,-0.0351,0,-0.0034,-0.0021,-0.0031,-0.0014,-0.0006,-0.0026,-0.0019,-0.0031,-0.005,-0.006,-0.0112,-0.0129,-0.0176,-0.0187,-0.0226,-0.0277,-0.0305,-0.0288,-0.0359,-0.0361,-0.0359,-0.0354,-0.0326,-0.0348,-0.0354,-0.0355,-0.0355,0,-0.0012,-0.0005,0.0017,0.003,0.0033,0.004,0.0051,0.0047,0.0024,0.0009,-0.0026,-0.0062,-0.0108,-0.015,-0.0237,-0.0223,-0.028,-0.0325,-0.0328,-0.0343,-0.0366,-0.0361,-0.0353,-0.036,-0.0359,-0.0359,-0.0359,0,0.0022,0.0031,0.0054,0.0056,0.0064,0.0076,0.0078,0.0069,0.0082,0.0049,0.0056,-0.001,-0.003,-0.0119,-0.0209,-0.0224,-0.0298,-0.0334,-0.0387,-0.0387,-0.0385,-0.0384,-0.0397,-0.0397,-0.0397,-0.0397,-0.0397,0,0.005,0.0067,0.0073,0.0086,0.0123,0.0113,0.0145,0.0137,0.014,0.0168,0.0093,0.0104,-0.0024,-0.0079,-0.0181,-0.028,-0.0278,-0.0378,-0.0396,-0.0369,-0.0367,-0.0398,-0.0397,-0.0398,-0.0398,-0.0398,-0.0397,0,0.0082,0.0083,0.0112,0.013,0.0141,0.0165,0.0196,0.0221,0.0212,0.0246,0.0243,0.0196,0.0124,0.0002,-0.0127,-0.0227,-0.0334,-0.037,-0.0318,-0.0331,-0.0412,-0.0409,-0.044,-0.044,-0.0441,-0.0441,-0.0441,0,0.0099,0.0118,0.015,0.0175,0.0184,0.0216,0.0249,0.0256,0.0288,0.0311,0.0339,0.029,0.0269,0.0082,-0.0099,-0.0268,-0.0307,-0.0363,-0.0401,-0.0402,-0.0417,-0.0414,-0.0412,-0.0378,-0.0378,-0.0378,-0.0377,0,0.0135,0.0147,0.0173,0.0225,0.0263,0.0305,0.0348,0.0392,0.0415,0.045,0.0496,0.0486,0.0323,0.0164,-0.0071,-0.0193,-0.0338,-0.0363,-0.0378,-0.0371,-0.0346,-0.036,-0.0359,-0.0375,-0.0375,-0.0375,-0.0375,-0.0375,0.0169,0.0193,0.0231,0.028,0.0327,0.0391,0.043,0.0489,0.0558,0.0611,0.0605,0.0579,0.0418,0.0114,-0.0076,-0.0299,-0.0308,-0.0398,-0.0398,-0.0398,-0.0386,-0.0363,-0.0391,-0.0391,-0.0391,-0.0392,-0.0392,0,0.0216,0.0237,0.0283,0.0342,0.0398,0.0413,0.0498,0.0538,0.0625,0.0665,0.0691,0.0543,0.0372,0.0167,-0.015,-0.0334,-0.0355,-0.0399,-0.0382,-0.0383,-0.0384,-0.0371,-0.0372,-0.0373,-0.0373,-0.0373,0,0,0.0243,0.0292,0.0309,0.0396,0.0434,0.0503,0.0551,0.0617,0.0654,0.0694,0.0678,0.0646,0.0422,0.0203,-0.003,-0.0209,-0.0265,-0.0249,-0.0246,-0.02,-0.0199,-0.0362,-0.034,0,0,0,0,0]}],[{"header":{"parameterUnit":"m.s-1","parameterCategory":2,"la1":30.2991,"la2":30.254,"lo1":-89.0895,"lo2":-89.0444,"dy":0.0017,"dx":0.0017,"nx":28,"ny":28,"refTime":"2023-09-19T21:00:00:Z","depth":"4","parameterNumber":2,"parameterNumberName":"U-component_of_CURRENTS"},"data":[0,0,0,0,0,0,0,0,0,0,0,0,0,0,0,0,0,0,0,0,0,0,0,0,0,0,0,0,0,0,0,0,0,0,0,0,0,0,0,0,0,0,0,0,0,0,0,0,0,0,0,0,0,0,0,0,0,0,0.1345,0.1345,0,0.138,0.138,0.1381,0.1422,0.1423,0.1424,0.1424,0.1473,0.1473,0.1474,0,0,0,0,0,0,0,0,0,0,0,0,0,0.1296,0.1297,0.1345,0.1345,0.1346,0.138,0.138,0.1381,0.1422,0.1423,0.1424,0.1425,0.1473,0.1473,0.1474,0,0,0,0,0,0,0,0,0,0,0,0,0,0.1322,0.1297,0.1345,0.1372,0.1375,0.138,0.138,0.1381,0.1422,0.1423,0.1424,0.1425,0.1472,0.1473,0.1474,0.1456,0,0,0.1477,0.1477,0,0,0,0,0,0,0,0,0.132,0.1323,0.1367,0.137,0.1373,0.1399,0.1381,0.1407,0.1422,0.1402,0.1425,0.1426,0.1449,0.1452,0.1454,0.1458,0.1461,0.1477,0.1477,0.1478,0.1478,0,0,0,0,0,0,0,0.1318,0.1322,0.1357,0.1368,0.1371,0.1377,0.1381,0.1386,0.1418,0.1404,0.1408,0.1414,0.1451,0.1453,0.1456,0.1461,0.1477,0.1477,0.1478,0.1478,0.155,0.1551,0,0,0,0,0,0,0.1317,0.132,0.1356,0.1358,0.1351,0.1377,0.1382,0.1388,0.1418,0.1424,0.1412,0.1415,0.1451,0.1455,0.1457,0.1525,0.1478,0.1478,0.1479,0.1548,0.155,0.1552,0,0,0,0,0,0,0.1316,0.132,0.1355,0.1341,0.1346,0.1377,0.1383,0.1389,0.1423,0.1424,0.1431,0.1445,0.1452,0.1456,0.1492,0.1524,0.1479,0.148,0.1547,0.1549,0.1551,0.1603,0,0,0,0,0,0,0.1314,0.1319,0.1337,0.1341,0.1347,0.1379,0.1383,0.1389,0.1423,0.1428,0.1453,0.1457,0.1453,0.1491,0.1493,0.1524,0.148,0.1545,0.1548,0.155,0.16,0.1607,0.1613,0,0,0,0,0,0.1312,0.1326,0.1337,0.1342,0.1366,0.138,0.1384,0.1408,0.1424,0.1442,0.1464,0.1458,0.1509,0.1493,0.1495,0.1527,0.1544,0.1547,0.155,0.1597,0.1605,0.1613,0,0,0,0,0,0,0.1315,0.1332,0.1344,0.1364,0.1382,0.1388,0.1411,0.1424,0.1454,0.147,0.1472,0.1477,0.1521,0.1516,0.1498,0.1556,0.1527,0.1531,0.1562,0.157,0.1577,0.1572,0.1481,0,0,0,0,0,0.1322,0.1342,0.1355,0.1375,0.1387,0.1405,0.142,0.1436,0.1455,0.1472,0.1489,0.151,0.1528,0.1545,0.1557,0.1586,0.1585,0.1609,0.1616,0.1621,0.1619,0.1645,0.1653,0.1562,0.1562,0.1562,0,0,0.1329,0.1343,0.1354,0.1378,0.1396,0.1414,0.1418,0.1449,0.1472,0.147,0.1518,0.1534,0.1541,0.1577,0.1596,0.1582,0.1651,0.1625,0.163,0.1625,0.1649,0.1658,0.1666,0.1564,0.1564,0.1563,0,0,0.134,0.1366,0.1383,0.14,0.1433,0.1442,0.1459,0.1483,0.1508,0.1545,0.1555,0.159,0.1618,0.163,0.1638,0.1687,0.1684,0.17,0.1731,0.1757,0.1764,0.1771,0.1797,0.1805,0.1705,0.1705,0.1705,0,0.135,0.1371,0.1391,0.141,0.1429,0.1459,0.1479,0.1503,0.1539,0.1561,0.1572,0.1628,0.1639,0.1677,0.1699,0.1701,0.1717,0.17,0.1765,0.1771,0.1777,0.1802,0.1811,0.1708,0.1708,0.1707,0.1707,0,0.1362,0.1392,0.1406,0.144,0.1463,0.1489,0.1518,0.1555,0.159,0.161,0.1667,0.1685,0.1719,0.1733,0.1733,0.1785,0.1785,0.1769,0.1742,0.1789,0.1813,0.1821,0.1712,0.1711,0.171,0.1709,0,0,0.1348,0.1404,0.1412,0.1435,0.1483,0.1499,0.1547,0.1589,0.1627,0.1671,0.1716,0.1757,0.1779,0.1789,0.1801,0.1825,0.1887,0.1823,0.1823,0.1845,0.1955,0.1841,0.1839,0.1889,0.1891,0.1892,0.196,0,0.1355,0.1395,0.1422,0.1467,0.1489,0.1532,0.1571,0.1617,0.1663,0.1715,0.1749,0.1797,0.1796,0.1828,0.1854,0.1878,0.1909,0.187,0.1909,0.191,0.18,0.1844,0.1896,0.1966,0.1968,0.1969,0.197,0,0.1349,0.1381,0.1424,0.1484,0.1499,0.1534,0.1605,0.1645,0.1718,0.1756,0.1811,0.184,0.1896,0.1884,0.195,0.1931,0.1952,0.1963,0.1965,0.1841,0.181,0.1907,0.1984,0.1983,0.1982,0.1981,0.198,0,0.1315,0.1379,0.1416,0.1436,0.1507,0.1545,0.1592,0.1664,0.1702,0.1794,0.1835,0.1896,0.1942,0.1973,0.2009,0.1992,0.2072,0.2044,0.196,0.1954,0.2012,0.2004,0.2088,0.2088,0.2088,0.2087,0.2087,0,0.1293,0.1327,0.1411,0.143,0.1481,0.154,0.1602,0.1659,0.1738,0.1781,0.1862,0.1897,0.197,0.202,0.2035,0.2024,0.2097,0.197,0.1961,0.2035,0.2029,0.2018,0.201,0.209,0.2089,0.2089,0.2088,0,0.1242,0.1298,0.1346,0.1435,0.1465,0.1505,0.1599,0.1637,0.1732,0.1792,0.1826,0.1921,0.1982,0.2043,0.2101,0.2048,0.2054,0.2035,0.213,0.2125,0.1913,0.1906,0.1932,0.1929,0.1926,0.1923,0.1921,0,0.1216,0.1238,0.1337,0.1368,0.1413,0.1483,0.1524,0.1622,0.1659,0.1783,0.1798,0.19,0.1952,0.1945,0.2016,0.2042,0.2021,0.2012,0.1935,0.1907,0.1897,0.1895,0.1892,0.1917,0.1916,0.1915,0.1914,0,0.1166,0.1214,0.1256,0.132,0.1372,0.1416,0.1488,0.1498,0.1605,0.1702,0.1724,0.1755,0.1824,0.1862,0.191,0.192,0.2004,0.1981,0.1986,0.1913,0.1888,0.188,0.1881,0.1904,0.1905,0.1906,0.1907,0,0.1134,0.115,0.1214,0.1256,0.1317,0.1333,0.1378,0.1415,0.1457,0.1586,0.1587,0.1699,0.1794,0.18,0.1838,0.1847,0.1809,0.174,0.1756,0.1769,0.1683,0.1625,0.1556,0,0,0,0,0,0.1095,0.1106,0.1145,0.1183,0.1237,0.1272,0.1344,0.1388,0.1483,0.1457,0.1514,0.1566,0.1609,0.1667,0.1645,0.1781,0.183,0.1747,0.1761,0.1847,0.1859,0.1773,0,0,0,0,0,0,0.1071,0.1109,0.1118,0.1111,0.1124,0.1169,0.121,0.1275,0.1263,0.1366,0.1398,0.1476,0.1548,0.1611,0.1617,0.1637,0.1614,0.1818,0.1814,0.184,0.1851,0.1861,0.1777,0,0,0,0,0]},{"header":{"parameterUnit":"m.s-1","parameterCategory":2,"la1":30.2991,"la2":30.254,"lo1":-89.0895,"lo2":-89.0444,"dy":0.0017,"dx":0.0017,"nx":28,"ny":28,"refTime":"2023-09-19T21:00:00:Z","depth":"4","parameterNumber":3,"parameterNumberName":"V-component_of_CURRENTS"},"data":[0,0,0,0,0,0,0,0,0,0,0,0,0,0,0,0,0,0,0,0,0,0,0,0,0,0,0,0,0,0,0,0,0,0,0,0,0,0,0,0,0,0,0,0,0,0,0,0,0,0,0,0,0,0,0,0,0,0,0.0011,0.0011,0,-0.0025,-0.0025,-0.0026,-0.0049,-0.0049,-0.0049,-0.0049,-0.01,-0.0101,-0.0102,0,0,0,0,0,0,0,0,0,0,0,0,0,0.0037,0.0037,0.0011,0.0011,0.001,-0.0025,-0.0025,-0.0026,-0.0049,-0.0049,-0.0049,-0.0049,-0.0099,-0.0101,-0.0102,0,0,0,0,0,0,0,0,0,0,0,0,0,0.0016,0.0037,0.0011,-0.0005,-0.0007,-0.0025,-0.0025,-0.0026,-0.0049,-0.0049,-0.0049,-0.0049,-0.0099,-0.0101,-0.0103,-0.0111,0,0,-0.0108,-0.0109,0,0,0,0,0,0,0,0,0.0017,0.0015,-0.0002,-0.0004,-0.0006,-0.0032,-0.0035,-0.0055,-0.0049,-0.0033,-0.0049,-0.0049,-0.0078,-0.0082,-0.0089,-0.0113,-0.0116,-0.0109,-0.011,-0.011,-0.0111,0,0,0,0,0,0,0,0.0019,0.0016,-0.0003,-0.0003,-0.0005,-0.0019,-0.0022,-0.0039,-0.0055,-0.0034,-0.0036,-0.004,-0.0079,-0.0087,-0.009,-0.0116,-0.0108,-0.011,-0.0111,-0.0112,-0.015,-0.0149,0,0,0,0,0,0,0.0025,0.0018,-0.0002,-0.0004,0.0006,-0.0019,-0.0022,-0.0024,-0.0054,-0.0059,-0.0039,-0.0041,-0.0083,-0.0088,-0.0092,-0.0096,-0.011,-0.0112,-0.0113,-0.015,-0.015,-0.0149,0,0,0,0,0,0,0.0026,0.0024,-0.0001,0.0006,0.0002,-0.0019,-0.0021,-0.0024,-0.0033,-0.0058,-0.0063,-0.0044,-0.0084,-0.0089,-0.0103,-0.0098,-0.0113,-0.0115,-0.015,-0.015,-0.0149,-0.0109,0,0,0,0,0,0,0.0027,0.0024,0.0025,0.0006,0.0002,-0.0008,-0.0021,-0.0025,-0.0035,-0.0036,-0.0064,-0.0068,-0.0084,-0.01,-0.0105,-0.0101,-0.0116,-0.015,-0.015,-0.015,-0.0111,-0.0108,-0.0105,0,0,0,0,0,0.0028,0.0032,0.0026,0.0023,0.0004,-0.0008,-0.0012,-0.0027,-0.0035,-0.0036,-0.0052,-0.0068,-0.0102,-0.0101,-0.0107,-0.0104,-0.015,-0.015,-0.015,-0.0112,-0.0108,-0.0105,0,0,0,0,0,0,0.0045,0.0029,0.0022,0.0022,0.0009,-0.0012,-0.0013,-0.0026,-0.004,-0.0042,-0.0066,-0.0072,-0.0083,-0.0099,-0.0098,-0.0114,-0.0129,-0.013,-0.0098,-0.0095,-0.0092,-0.0076,-0.0118,0,0,0,0,0,0.005,0.0049,0.003,0.0031,0.0026,0.0006,-0.0001,-0.0012,-0.0027,-0.0034,-0.0054,-0.0072,-0.0087,-0.0095,-0.0112,-0.012,-0.0137,-0.0122,-0.012,-0.0117,-0.0108,-0.0126,-0.0124,-0.0148,-0.0148,-0.0148,0,0,0.0057,0.0048,0.0048,0.0035,0.0024,0.0023,0.0001,-0.0006,-0.0005,-0.0037,-0.0042,-0.0065,-0.0087,-0.0096,-0.0102,-0.0108,-0.0121,-0.0117,-0.0114,-0.0106,-0.0126,-0.0123,-0.0121,-0.0148,-0.0148,-0.0148,0,0,0.0074,0.0064,0.0069,0.006,0.0046,0.0035,0.0034,0.0013,0.0006,-0.0004,-0.0024,-0.004,-0.0067,-0.0077,-0.0086,-0.0078,-0.0107,-0.0089,-0.006,-0.0078,-0.0075,-0.0074,-0.01,-0.0101,-0.0086,-0.0086,-0.0086,0,0.0085,0.0087,0.0069,0.0071,0.0071,0.0044,0.0052,0.0041,0.0018,0.0017,-0.0,-0.0033,-0.0055,-0.0056,-0.0055,-0.0071,-0.009,-0.007,-0.0073,-0.0072,-0.0071,-0.0098,-0.0099,-0.0084,-0.0084,-0.0084,-0.0084,0,0.0103,0.0105,0.0108,0.0105,0.0102,0.0103,0.0089,0.0083,0.0068,0.0055,0.0043,0.0012,-0.0005,-0.0018,-0.0034,-0.0036,-0.0056,-0.0068,-0.0079,-0.0065,-0.0095,-0.0098,-0.0081,-0.0082,-0.0082,-0.0083,0,0,0.0131,0.0124,0.0126,0.0132,0.0122,0.0123,0.0128,0.0125,0.0131,0.0102,0.0107,0.0077,0.0055,0.0043,0.0017,0.0002,-0.0014,-0.0027,-0.0029,-0.0048,-0.0062,-0.0073,-0.0078,-0.0029,-0.0029,-0.0029,-0.0088,0,0.0154,0.0167,0.0159,0.0179,0.0186,0.0171,0.0182,0.0176,0.0161,0.0156,0.0125,0.0114,0.008,0.007,0.005,0.0004,-0.0018,0.0002,-0.0076,-0.0078,-0.0086,-0.0079,-0.0029,-0.009,-0.0091,-0.0091,-0.0091,0,0.0178,0.0184,0.0206,0.0219,0.0223,0.0232,0.0245,0.0248,0.0234,0.0222,0.0203,0.0173,0.0149,0.0114,0.0048,0.006,0.0004,-0.0035,-0.0039,-0.0062,-0.0093,-0.0106,-0.0096,-0.0096,-0.0095,-0.0095,-0.0095,0,0.0208,0.022,0.0242,0.0244,0.0253,0.0266,0.0271,0.0268,0.028,0.026,0.0261,0.0222,0.0202,0.0138,0.0052,0.0048,-0.0028,-0.0045,-0.0109,-0.0111,-0.0101,-0.0102,-0.0093,-0.0093,-0.0093,-0.0093,-0.0093,0,0.0234,0.0252,0.0257,0.0268,0.0302,0.0296,0.0327,0.0322,0.0326,0.0343,0.0296,0.0294,0.0206,0.015,0.0068,-0.0026,-0.0019,-0.01,-0.0122,-0.0085,-0.0083,-0.0104,-0.0104,-0.0095,-0.0095,-0.0094,-0.0094,0,0.0259,0.0262,0.0289,0.0305,0.0316,0.0336,0.0364,0.0382,0.0378,0.0396,0.0394,0.0348,0.0271,0.0175,0.0065,-0.0002,-0.0092,-0.0132,-0.0087,-0.0107,-0.0169,-0.0167,-0.0202,-0.0203,-0.0203,-0.0204,-0.0204,0,0.027,0.0286,0.0317,0.0335,0.0343,0.0372,0.0395,0.0406,0.0424,0.0428,0.0439,0.0378,0.033,0.0175,0.0065,-0.009,-0.0117,-0.0167,-0.0164,-0.016,-0.0179,-0.0175,-0.0172,-0.0205,-0.0206,-0.0206,-0.0206,0,0.0291,0.0303,0.0322,0.036,0.0389,0.0424,0.0453,0.0475,0.0487,0.0492,0.0478,0.0398,0.0307,0.018,0.0055,-0.0056,-0.0131,-0.0174,-0.0174,-0.0171,-0.0164,-0.0182,-0.0178,-0.0208,-0.0208,-0.0208,-0.0208,0,0.0305,0.0319,0.0344,0.0377,0.0418,0.0455,0.0474,0.0493,0.0514,0.0518,0.0512,0.0416,0.0363,0.0196,0.0085,-0.0028,-0.0059,-0.0095,-0.0099,-0.0098,-0.0053,-0.0028,-0.0045,0,0,0,0,0,0.0311,0.0322,0.0355,0.0387,0.043,0.0453,0.0503,0.0518,0.0536,0.0533,0.0525,0.0441,0.0281,0.0213,0.0099,0.0056,-0.009,-0.0083,-0.0135,-0.0221,-0.0218,-0.0184,0,0,0,0,0,0,0.031,0.0338,0.035,0.0391,0.0413,0.046,0.0494,0.051,0.0508,0.0515,0.0434,0.0402,0.0246,0.0342,0.0092,0.0058,0.0007,-0.0155,-0.0158,-0.0223,-0.022,-0.0218,-0.0182,0,0,0,0,0]}]]